Theta_e
303 303 303 304 304 305 305 305 306 305 304 305 304 308 306 306 299 310 314 317 312 304 296 299 297 296 297 300 298 298 296 295 298 297 298 296 299 298 297 297 295 297 296 296 295 296 293 297 294 297 297 300 302 304 304 304 302 303 299 300 302 305 293 292 292 296 299 300 302 303 303 301 298 299 299 297 295 297 295 293 295 291 291 289 289 286 292
303 303 303 304 304 304 305 306 305 305 304 304 306 304 304 303 301 306 312 315 310 301 290 290 292 295 298 298 296 299 297 297 295 295 298 296 296 296 296 297 298 296 299 297 294 297 290 295 295 296 298 297 304 303 303 304 300 299 300 296 303 292 296 294 289 289 291 293 296 297 301 299 296 295 298 299 299 299 300 298 299 289 292 291 288 283 288
302 303 304 304 304 304 305 305 305 305 305 305 306 302 305 305 307 304 307 311 311 298 299 295 293 294 294 296 294 295 296 298 297 297 296 298 297 296 295 297 298 296 297 296 296 297 294 294 297 300 298 298 303 304 303 304 302 302 306 309 304 295 295 292 285 284 282 281 282 286 289 293 296 298 297 299 297 299 298 289 292 287 292 293 289 287 297
303 303 303 304 304 304 305 305 305 305 305 304 307 305 303 300 290 298 301 304 303 302 304 300 297 294 294 291 295 295 294 296 298 298 297 299 298 298 297 298 298 296 296 295 294 294 298 294 294 295 296 298 300 303 304 303 302 305 308 308 304 297 300 296 292 289 288 290 293 295 296 295 292 294 296 297 299 300 299 296 291 287 291 290 293 294 296
303 303 303 303 304 304 305 305 305 304 304 304 305 307 306 303 294 293 290 299 300 297 302 298 298 294 296 289 295 294 295 296 296 299 294 297 297 297 297 296 294 294 294 294 294 295 295 297 295 295 297 297 300 303 303 303 305 310 305 306 302 297 291 297 297 295 294 295 296 297 296 293 294 294 294 297 297 299 298 291 290 296 292 286 295 299 296
303 303 303 303 304 304 305 305 305 304 304 304 310 303 303 293 296 299 299 294 291 292 293 298 296 298 297 293 296 293 293 294 292 297 297 297 299 294 295 296 296 295 294 295 290 293 294 294 291 296 297 296 299 298 303 302 307 307 303 305 300 298 291 297 297 294 296 296 296 296 296 295 294 294 295 294 296 297 294 296 299 297 291 287 296 298 296
302 303 303 303 304 304 305 305 304 304 303 305 311 300 303 301 300 300 303 295 298 296 297 296 297 297 296 295 295 292 292 292 294 294 296 295 295 296 289 293 294 295 296 294 292 294 290 289 296 297 298 298 298 296 299 301 304 302 301 302 304 299 293 298 297 295 295 295 295 296 295 294 294 294 294 296 295 295 296 296 298 300 298 299 298 298 297
302 303 303 303 304 304 305 305 305 303 302 310 305 301 298 295 296 295 302 299 297 297 298 297 296 293 295 290 293 293 293 291 294 297 295 290 294 298 294 296 295 295 296 296 295 297 299 298 292 300 298 299 299 297 298 299 302 302 300 301 303 298 293 297 299 293 292 295 295 295 294 294 293 294 295 295 295 295 295 295 296 297 298 299 298 297 295
302 302 303 303 304 304 305 305 305 303 303 310 303 301 303 304 303 304 298 292 294 299 297 294 294 291 292 290 292 294 293 292 295 295 298 296 294 296 294 297 296 298 297 296 295 297 298 299 298 299 299 293 300 297 298 300 297 299 299 301 299 300 292 298 296 289 289 295 295 294 294 293 293 293 294 294 293 290 293 290 293 293 292 293 295 293 292
302 302 303 303 304 304 305 305 305 304 304 310 306 298 305 306 307 306 300 291 294 294 295 294 293 288 291 291 291 292 293 296 296 290 296 299 298 298 297 298 296 296 295 294 295 297 298 299 300 300 300 301 300 301 301 301 299 298 299 302 296 299 294 291 291 288 287 293 295 294 294 292 287 288 293 295 293 294 295 295 295 295 297 292 289 291 299
301 302 302 303 303 304 304 305 305 304 306 305 305 302 302 300 300 303 302 292 291 294 292 292 291 291 295 294 292 295 294 295 296 290 289 298 297 298 298 297 294 292 292 295 300 301 301 301 301 302 301 300 300 300 301 300 300 300 298 297 296 298 295 292 295 286 287 292 293 295 289 282 284 293 299 298 294 294 292 291 292 295 297 294 297 298 300
301 302 302 303 303 304 304 305 305 305 304 307 308 304 304 305 304 303 296 290 290 295 292 290 291 294 293 293 293 293 293 294 295 298 293 296 297 298 297 296 296 288 297 302 302 302 303 303 301 301 300 300 300 300 300 299 299 300 301 297 295 294 294 292 293 287 286 290 292 286 281 283 292 298 298 299 298 297 294 293 294 295 297 297 296 295 295
301 302 302 302 303 303 304 305 305 305 305 307 308 303 305 308 304 302 297 292 289 292 290 291 294 294 294 295 293 293 294 296 297 297 297 296 296 297 297 295 294 295 301 300 301 301 297 296 297 297 297 298 298 298 298 298 298 300 301 300 298 291 292 292 290 290 289 287 287 278 281 290 295 296 298 300 299 297 295 292 294 295 295 296 294 295 295
301 301 302 302 302 303 304 305 305 306 306 306 306 308 305 307 304 303 300 292 288 293 294 293 294 293 294 293 294 294 294 295 297 297 294 297 295 294 297 298 298 300 300 301 299 298 294 295 290 292 292 293 294 292 295 297 298 298 298 299 300 298 297 293 288 291 285 286 285 284 290 291 292 292 294 295 292 293 291 286 290 295 295 295 294 294 294
300 301 301 302 302 303 304 304 305 305 306 305 309 307 306 308 308 305 305 298 289 291 293 287 292 293 294 292 293 293 293 294 292 291 295 296 293 295 296 297 300 300 301 298 295 297 293 291 287 286 288 287 283 285 294 291 296 298 298 298 299 299 291 294 289 287 290 285 283 283 282 280 285 291 296 298 299 299 299 294 289 296 296 297 295 294 294
300 301 301 302 302 303 304 304 305 305 305 305 309 306 306 309 310 308 305 296 293 286 290 295 296 294 293 292 294 292 290 290 291 292 293 293 292 294 297 298 300 301 299 297 296 292 291 287 285 285 283 285 289 286 285 291 290 295 297 297 297 298 299 294 290 288 287 285 282 282 280 282 287 289 292 296 297 298 299 291 286 295 296 296 295 294 295
300 300 301 301 302 303 304 304 305 305 305 304 305 307 303 310 308 306 303 297 294 288 295 296 298 297 294 293 295 292 294 290 293 288 287 290 291 293 295 298 302 299 295 294 294 291 289 287 289 288 289 291 286 285 289 287 286 288 294 295 294 294 292 291 289 286 287 285 282 281 283 283 289 291 292 296 296 297 294 282 282 294 296 297 296 295 295
300 300 301 301 302 303 303 304 305 305 305 305 306 308 303 310 311 308 304 297 292 291 295 297 295 293 291 293 292 294 296 295 294 295 291 293 293 292 293 296 293 299 298 290 292 289 288 287 285 285 284 291 291 291 282 287 285 286 287 289 288 289 289 290 286 287 286 284 284 283 284 289 292 293 295 296 298 295 284 279 286 295 297 298 298 296 296
300 300 301 301 302 303 303 304 305 305 305 305 307 309 303 308 309 309 304 297 295 288 294 297 298 295 297 298 296 296 296 295 294 290 289 289 291 294 296 296 297 290 296 291 292 288 287 287 291 289 286 287 290 284 290 285 285 291 289 287 287 287 287 287 288 285 284 285 283 282 282 288 292 296 294 295 292 283 281 289 298 297 296 299 297 295 296
300 301 301 301 302 303 303 304 305 305 306 306 306 307 304 307 310 309 301 296 296 292 294 295 295 293 296 294 292 291 293 294 294 292 290 287 294 295 294 290 294 295 292 294 286 290 286 285 287 290 286 287 289 292 287 287 291 288 288 290 286 287 284 283 283 286 286 286 283 281 277 287 295 295 294 296 286 286 293 296 296 297 296 296 296 296 296
300 301 301 301 302 303 303 304 304 305 306 306 305 308 302 307 310 310 309 301 297 291 292 298 298 295 296 295 296 295 294 292 293 291 292 293 296 294 284 284 289 292 287 289 285 286 287 285 288 287 290 288 289 289 284 285 288 292 291 290 289 292 285 284 286 288 282 282 279 278 285 290 296 294 287 292 293 296 297 296 293 296 296 295 295 295 296
300 301 301 301 302 303 303 304 305 305 305 306 305 311 302 305 308 308 308 305 297 293 296 299 300 298 299 299 299 299 297 297 297 297 293 291 296 293 293 294 293 293 293 294 290 290 291 290 291 287 286 287 292 286 289 284 283 288 293 291 283 292 289 289 285 290 286 284 285 289 292 293 295 294 293 294 296 298 298 297 295 294 295 297 295 294 296
301 300 301 301 302 302 303 303 304 304 305 306 306 309 302 303 305 310 309 301 302 302 303 302 300 299 300 300 301 301 301 301 301 299 298 293 291 293 291 291 292 298 296 296 290 291 290 289 286 290 288 289 287 285 288 287 284 288 285 291 291 294 294 295 291 288 292 293 293 293 293 293 293 295 295 294 295 296 296 295 293 295 295 295 294 295 295
301 300 301 301 302 302 303 303 304 304 304 305 305 307 306 306 305 306 305 301 297 293 295 299 296 291 294 295 298 301 301 301 301 302 303 301 291 290 294 294 296 297 295 296 298 293 291 290 289 291 285 289 290 286 283 283 284 289 287 287 290 293 294 292 288 291 288 282 292 291 291 293 293 293 294 296 296 295 296 296 295 295 295 295 296 295 295
301 300 301 301 302 302 303 303 303 304 304 305 305 308 308 306 305 305 302 293 293 294 288 290 292 296 299 300 300 299 300 302 304 302 301 301 298 293 291 296 300 294 294 296 299 295 292 288 290 289 284 290 290 285 290 286 285 290 285 287 288 287 294 290 290 289 285 286 290 292 293 294 294 294 293 293 294 295 295 295 295 295 296 296 296 296 296
301 300 301 301 301 302 303 303 303 303 304 304 305 306 304 302 305 307 305 305 303 298 289 288 293 299 300 298 296 298 302 302 301 301 300 299 300 300 298 299 300 302 300 300 296 291 289 289 289 288 287 287 294 287 286 289 288 291 288 287 290 290 293 286 290 287 289 291 292 292 293 292 293 294 295 295 294 294 294 295 295 295 294 293 293 295 295
301 301 301 301 301 302 302 303 303 303 303 304 305 307 306 306 307 303 301 301 297 291 292 289 293 296 298 296 299 301 301 301 301 301 299 299 299 300 300 298 297 297 295 295 295 292 291 288 287 286 288 287 292 290 291 289 289 287 286 289 293 291 286 290 289 285 284 285 288 291 285 285 289 292 294 294 295 295 294 295 294 294 294 294 293 294 295
300 300 301 301 301 302 302 302 303 303 303 304 306 308 309 305 306 305 305 304 299 293 292 290 292 295 299 296 299 300 300 301 300 300 299 299 299 299 298 296 297 295 294 291 288 288 288 286 285 289 289 292 289 287 290 290 291 289 288 289 291 289 289 289 285 285 284 289 291 292 292 291 292 292 294 295 296 295 294 293 293 293 294 294 293 292 292
299 300 300 301 301 302 302 302 302 303 303 303 306 307 308 307 309 306 305 306 305 300 297 293 296 297 289 294 300 299 300 301 300 299 299 298 298 298 297 297 295 295 295 292 290 289 288 287 289 288 287 292 290 286 288 284 284 283 286 290 291 292 294 292 291 291 292 293 292 293 292 290 292 293 294 294 295 294 293 293 293 293 293 293 293 293 292
300 300 300 300 301 302 302 302 303 303 303 304 305 305 299 301 307 306 304 305 305 303 295 291 287 289 299 297 297 298 298 299 299 300 298 297 298 297 296 297 296 295 295 291 289 286 288 289 289 292 293 295 288 287 284 286 284 286 290 291 291 292 293 294 294 292 289 293 293 294 294 293 294 294 294 294 294 294 292 293 293 293 293 292 291 292 294
300 300 300 301 301 302 302 302 302 303 303 304 304 296 294 291 301 305 303 305 307 302 296 294 289 293 293 298 298 295 297 298 298 298 298 298 299 297 298 298 296 295 290 290 289 288 289 286 287 290 292 291 289 286 285 284 283 285 289 291 292 292 292 292 294 294 293 293 294 294 294 293 294 293 293 293 294 294 294 293 293 294 293 292 291 293 293
300 300 301 301 301 301 302 302 303 303 306 305 299 297 297 297 300 304 304 306 307 302 295 291 288 288 289 293 297 298 298 299 299 299 298 298 297 297 299 297 293 296 292 289 290 289 287 288 287 289 289 290 289 286 286 285 283 283 289 291 292 292 293 293 293 293 294 294 293 291 290 291 292 290 288 293 294 294 292 292 293 294 293 293 293 293 293
300 301 301 301 301 301 302 302 302 303 305 303 304 304 302 301 302 304 305 307 305 300 301 292 286 288 288 291 297 297 297 298 297 297 294 297 295 296 294 298 297 295 298 292 288 287 291 289 288 287 290 294 286 286 285 284 285 290 291 292 291 292 292 293 293 293 293 293 293 289 288 289 290 292 293 293 293 293 293 292 292 293 293 291 292 292 292
300 301 301 301 301 301 301 302 303 302 303 301 301 304 307 302 305 304 306 308 304 303 296 290 286 287 287 295 292 295 298 293 292 295 289 296 297 296 290 294 294 289 293 289 290 290 290 289 287 287 290 287 287 285 282 286 290 290 291 291 292 292 292 292 292 291 292 292 293 292 292 292 293 293 293 292 292 293 293 293 292 291 291 292 291 292 292
301 301 302 302 301 302 301 300 304 302 300 303 304 305 305 301 301 303 305 306 294 290 289 289 290 287 287 288 287 291 298 295 290 294 290 293 299 293 293 289 291 288 289 296 289 289 287 288 291 286 284 288 285 281 283 287 288 289 290 291 291 291 291 290 290 292 292 293 293 293 293 293 292 291 291 292 292 292 292 292 292 291 290 291 291 291 292
301 302 302 301 300 301 304 303 301 302 301 301 301 305 301 303 305 307 309 310 304 295 289 289 289 287 288 284 284 289 297 294 296 296 294 291 293 296 294 290 286 288 294 290 286 290 287 292 288 283 287 284 283 285 286 289 289 290 290 290 291 291 291 291 291 291 292 293 293 292 292 291 291 291 291 291 291 291 291 291 291 292 291 290 291 292 291
302 302 302 300 302 302 298 298 301 302 302 302 303 303 301 303 305 306 306 304 307 304 295 289 289 289 290 287 289 290 294 287 293 291 293 290 287 290 290 288 285 288 288 287 287 286 289 294 287 283 284 283 284 289 291 291 291 290 290 291 292 292 292 292 293 292 291 292 292 292 292 291 291 291 291 291 291 291 291 290 290 290 289 290 291 291 291
302 302 301 300 301 294 292 295 302 305 303 302 304 303 303 300 295 296 295 293 297 297 294 296 288 292 294 292 286 293 293 289 294 288 289 291 287 288 290 288 287 287 282 285 287 293 290 287 285 284 284 289 291 291 291 292 292 293 292 292 292 293 292 292 292 291 290 289 289 290 290 290 290 290 290 290 290 290 290 292 292 291 291 291 291 291 290
302 301 301 302 299 294 295 300 306 300 305 303 303 297 292 293 292 289 289 290 290 289 293 292 289 293 292 290 291 297 293 288 287 289 285 291 287 284 288 283 288 287 283 284 286 293 283 285 285 284 283 287 287 289 291 292 292 293 293 293 293 293 293 293 293 292 290 289 289 290 290 289 289 289 290 290 291 291 292 292 292 292 292 292 291 291 291
302 299 295 295 294 297 302 304 303 301 302 296 296 293 287 291 288 284 291 287 288 290 292 288 292 293 292 290 289 289 297 292 286 286 286 289 294 285 287 287 288 285 280 281 284 291 283 280 284 283 282 286 287 290 291 292 291 293 294 294 294 294 293 293 293 294 293 293 293 293 293 293 292 292 291 291 291 291 291 292 292 292 293 291 290 290 289
301 300 298 294 299 302 301 302 304 303 296 291 289 289 287 285 289 290 288 286 286 287 293 292 293 292 293 294 293 288 295 298 296 295 290 285 292 291 286 283 288 283 281 281 286 287 285 283 283 282 282 286 288 290 292 292 292 292 293 294 294 294 294 294 294 294 293 292 292 293 293 293 293 292 292 292 292 292 292 292 291 292 292 291 291 291 292
298 297 299 302 303 303 302 299 298 292 290 291 286 283 286 286 289 288 289 284 285 288 290 292 288 289 290 291 291 293 293 297 293 290 288 285 288 286 284 286 287 281 278 285 287 286 284 280 280 281 285 288 291 292 291 291 291 291 293 293 293 293 294 293 293 293 293 293 292 293 293 293 293 293 293 292 292 292 292 292 292 292 291 291 291 290 291
301 302 302 302 298 295 297 290 291 290 283 283 282 281 285 283 284 284 286 289 291 291 290 296 294 296 296 298 294 297 292 297 290 289 287 285 289 288 285 284 282 278 283 288 286 283 280 280 280 283 287 289 290 291 292 292 292 292 293 293 293 294 294 293 293 293 293 293 293 293 293 293 293 293 293 293 293 293 292 292 292 292 292 292 292 292 291
303 303 299 295 292 291 292 281 290 287 284 285 282 277 281 282 284 286 285 286 289 289 292 290 292 290 286 291 290 289 291 294 293 290 288 290 286 284 283 280 281 287 290 284 283 280 281 283 284 286 288 290 291 291 291 291 291 291 290 292 293 293 293 293 293 293 293 293 293 293 293 293 293 293 293 293 293 292 292 292 292 292 292 293 292 291 292
295 292 292 289 286 288 286 278 289 285 279 282 285 285 284 282 285 286 286 289 292 290 292 293 293 292 289 292 293 291 290 287 292 286 284 286 284 285 282 281 286 286 282 279 281 282 283 282 286 287 288 288 290 291 291 290 290 290 291 291 292 293 293 293 293 292 292 293 293 293 293 293 293 292 292 292 293 293 293 292 293 292 292 291 291 291 292
290 289 287 282 277 284 285 282 283 281 286 287 286 289 288 289 289 290 294 295 292 292 291 292 292 292 289 292 287 287 290 289 287 286 287 287 282 280 286 289 287 281 280 280 278 278 280 283 285 287 288 289 289 290 288 290 292 293 292 291 292 292 293 293 293 293 293 293 293 293 293 293 293 292 292 293 293 293 293 293 293 293 293 292 292 291 292
292 292 291 288 283 285 288 283 283 287 288 289 292 292 291 292 293 293 294 295 293 293 293 294 293 293 288 289 289 289 289 289 284 287 288 283 282 284 288 283 278 280 277 276 277 279 282 285 286 288 290 290 290 290 290 290 291 292 292 292 292 292 293 293 293 292 293 293 293 293 293 293 293 293 293 292 293 293 293 294 294 293 293 292 292 292 291
287 291 290 282 280 285 283 286 291 292 293 293 292 294 294 294 292 291 294 294 295 295 293 292 289 291 289 292 290 286 287 288 285 285 287 285 286 282 281 280 279 281 281 279 280 284 285 287 287 288 289 291 291 287 289 290 292 292 292 292 292 292 292 292 293 293 293 292 292 292 293 293 293 294 293 293 293 293 294 294 294 294 294 293 292 292 291
292 289 286 285 287 287 287 291 290 288 290 292 293 293 292 291 291 292 293 295 294 293 294 292 289 289 285 289 287 286 283 287 281 283 286 284 279 276 277 275 277 276 282 284 284 285 286 288 289 291 291 291 291 289 291 292 292 292 292 292 292 293 293 293 293 293 294 294 293 293 292 293 293 293 293 294 293 293 295 295 294 294 293 293 292 292 291
289 288 290 288 288 289 291 291 289 287 290 290 290 290 292 291 291 292 295 294 295 293 294 291 292 287 287 287 283 285 284 286 285 285 283 280 281 282 280 276 279 279 282 285 286 287 289 289 290 290 291 291 291 291 291 292 291 292 293 293 293 293 293 293 293 294 294 294 293 293 293 293 292 293 293 293 294 294 294 294 294 294 293 293 292 292 292
293 290 290 293 288 288 289 285 286 286 287 288 289 289 291 290 291 292 297 295 295 291 289 286 288 286 285 284 283 279 282 287 284 282 282 281 284 282 279 278 281 284 285 288 289 290 290 290 290 290 290 291 291 291 292 293 293 293 293 293 293 293 294 293 293 293 294 294 294 290 292 292 293 294 294 294 294 294 293 293 294 294 294 293 293 293 293
289 286 287 291 294 292 292 291 290 289 290 290 290 292 292 290 293 294 296 294 292 288 286 288 287 285 283 280 283 285 287 285 282 283 281 283 286 282 282 283 285 286 287 288 289 290 290 290 290 289 291 291 291 292 292 293 294 294 294 294 294 293 293 293 293 293 293 293 293 293 293 294 294 294 294 293 293 293 293 292 293 294 294 293 294 294 294
Wind_Speed
21 23 25 25 25 25 24 24 24 23 24 12 10 9 6 4 3 7 6 7 7 6 7 6 6 8 10 13 15 13 12 12 10 10 7 9 8 10 11 13 11 11 9 7 9 8 9 6 7 9 9 13 13 3 7 7 12 10 8 4 3 3 0 3 7 4 9 11 14 9 14 13 10 8 5 6 10 8 6 1 1 2 4 4 3 3 4
22 24 25 24 26 24 24 24 23 21 18 10 10 8 7 7 3 3 6 4 4 6 4 4 6 8 10 13 15 14 13 10 8 9 8 7 7 10 10 14 15 10 7 9 10 9 6 3 8 4 5 5 3 4 4 7 2 3 5 5 2 2 2 5 3 3 3 7 11 9 8 11 7 9 10 12 8 1 3 7 2 2 5 7 1 1 0
23 24 24 25 26 25 25 24 22 20 17 12 6 5 7 7 5 4 2 1 3 6 5 2 4 5 9 13 10 10 8 7 11 8 8 8 12 8 10 13 8 9 10 13 12 10 9 6 2 9 9 1 3 4 6 6 4 5 10 10 1 2 2 3 5 5 3 2 6 5 1 5 6 9 16 17 17 9 3 0 2 2 2 9 2 2 1
21 23 24 25 26 26 25 24 23 22 17 13 6 6 7 5 3 4 1 4 5 5 1 2 7 6 7 7 7 9 8 7 10 10 8 7 7 9 8 10 10 11 11 10 10 11 11 13 4 4 3 1 4 6 6 8 9 11 5 6 1 1 4 5 5 7 6 3 5 1 0 2 7 15 17 20 23 19 5 3 2 2 3 5 6 2 8
21 22 25 25 26 26 25 25 25 24 22 12 5 6 5 6 2 4 4 4 1 5 5 8 8 2 3 3 8 8 7 5 6 2 7 3 7 7 6 7 6 8 10 8 10 11 12 12 11 7 10 3 6 8 11 13 11 16 7 7 2 3 4 6 7 8 10 6 1 3 2 2 6 11 13 17 19 22 12 3 3 4 5 3 2 5 9
21 22 23 25 26 25 26 26 27 26 26 19 5 6 6 3 4 2 3 5 5 8 6 11 6 7 7 3 6 10 11 7 4 1 7 7 3 6 5 8 9 9 9 9 7 8 10 11 6 7 4 2 6 5 2 1 8 10 7 9 7 6 5 7 6 10 7 2 2 2 4 2 4 8 10 14 16 17 17 14 12 6 4 2 7 14 13
21 22 23 25 25 25 26 26 28 28 29 19 5 7 5 5 4 4 4 2 7 4 3 11 11 7 8 2 6 10 8 4 2 3 3 5 3 6 5 8 10 10 10 10 9 3 4 4 7 6 5 7 4 3 9 9 3 6 7 6 4 3 3 2 6 5 4 4 2 3 3 6 5 1 6 9 11 13 14 14 17 14 13 12 12 14 12
21 22 22 23 24 25 25 26 27 28 31 19 0 6 7 6 6 4 6 1 4 5 0 3 8 6 10 2 8 9 11 8 6 6 4 3 5 4 3 8 7 7 10 15 10 8 5 5 3 6 6 1 3 2 3 1 7 3 5 6 4 7 0 2 3 6 5 5 5 2 1 2 4 5 3 2 5 10 12 12 12 10 9 12 15 15 13
21 21 22 22 23 24 24 25 25 28 26 7 8 6 7 5 3 3 5 3 5 3 8 6 5 7 8 6 9 8 10 9 12 9 11 8 6 7 8 7 7 3 6 10 9 9 9 8 5 6 5 3 3 3 3 2 2 12 3 6 8 11 2 4 3 4 4 6 7 6 4 1 3 4 6 5 5 5 6 7 7 7 2 6 6 10 6
20 21 22 22 23 24 24 24 25 25 25 7 7 7 7 7 5 6 6 2 4 4 5 5 5 7 5 2 5 7 10 10 7 2 6 10 11 11 10 8 6 4 7 8 10 10 8 8 7 6 8 6 5 5 5 7 5 4 5 8 4 5 2 3 2 4 5 6 8 7 6 3 4 5 6 6 7 7 8 9 10 9 4 6 0 6 9
20 20 21 22 23 23 23 23 23 23 15 9 8 7 7 8 8 8 6 5 3 6 4 6 6 3 2 2 5 6 5 8 9 6 3 8 10 12 10 10 9 6 8 9 10 10 9 7 7 7 6 7 7 4 3 6 9 6 9 4 3 4 4 1 3 3 3 7 5 5 4 5 0 2 7 6 9 8 7 6 8 8 9 9 11 7 8
20 21 21 22 22 23 23 23 23 21 16 9 7 5 7 7 7 8 6 2 3 3 5 7 6 7 5 5 3 5 7 8 7 7 6 7 8 9 10 9 8 5 8 10 9 7 8 8 8 7 7 7 7 6 6 6 1 1 11 9 5 8 6 1 3 2 5 7 5 2 5 2 4 2 6 4 7 11 13 9 8 9 9 9 12 14 14
20 20 21 22 22 23 23 23 23 21 19 12 9 7 7 8 7 8 6 4 4 7 6 6 8 10 5 7 5 2 5 7 7 5 4 7 7 7 7 8 9 9 11 11 10 10 7 5 5 6 7 6 8 7 6 3 3 4 5 3 3 0 3 1 1 3 3 2 2 3 2 4 4 6 7 9 10 11 12 9 7 7 9 11 11 10 11
20 20 20 21 22 22 22 22 23 22 21 15 8 7 7 8 8 8 7 4 5 6 11 7 8 7 8 8 7 7 1 2 4 4 7 6 7 10 8 8 9 10 9 9 10 6 5 3 2 3 5 4 5 6 7 7 2 4 5 3 3 3 2 2 2 2 3 2 5 1 5 6 6 4 6 3 3 2 3 2 4 7 7 8 10 10 11
19 19 20 21 21 21 22 22 22 23 22 22 8 4 7 8 8 7 8 7 4 6 8 6 6 11 8 8 10 2 4 5 3 2 1 3 6 6 6 9 9 10 10 10 7 5 3 2 3 2 1 2 2 2 7 3 4 4 2 1 2 3 3 2 2 0 1 1 1 2 3 3 5 10 6 8 7 8 2 9 6 8 9 9 10 10 9
19 19 19 20 21 21 22 21 21 21 21 24 11 6 6 9 8 7 8 7 5 5 8 7 7 11 6 8 8 9 6 4 4 1 3 2 4 1 6 7 8 8 9 8 7 4 3 2 3 3 2 2 2 2 3 6 7 4 1 4 4 3 5 5 1 0 1 3 5 3 2 3 5 8 11 9 7 8 9 2 8 9 12 13 12 12 10
18 18 19 20 20 21 22 21 21 20 19 19 10 9 6 10 9 9 8 5 7 6 8 10 8 6 7 6 7 7 7 5 6 4 3 2 5 7 5 5 3 9 5 8 7 5 3 4 5 3 3 2 2 2 2 1 2 6 3 4 6 4 2 3 4 3 3 1 2 1 4 5 6 5 5 9 8 7 4 5 7 9 13 14 14 13 13
17 17 18 19 20 21 21 21 22 20 20 21 11 7 6 8 9 10 6 4 3 6 8 10 10 8 8 7 7 8 7 6 10 3 2 9 9 7 7 6 9 2 1 8 5 3 3 2 2 2 2 4 4 2 2 2 4 3 4 6 4 2 2 1 2 4 3 4 1 5 4 3 9 8 7 6 9 5 2 2 4 4 5 8 10 12 11
16 17 18 19 20 20 21 21 21 21 21 21 14 7 6 9 10 10 7 6 5 5 8 10 9 9 10 8 8 9 8 9 10 4 6 5 7 10 10 5 5 5 7 6 5 3 3 2 2 4 1 4 4 0 2 1 2 3 5 3 2 2 2 2 3 1 3 0 3 3 3 2 8 7 4 6 5 1 4 1 1 10 8 7 13 15 12
15 16 17 18 19 20 21 21 22 21 20 19 12 7 5 8 8 9 9 5 5 7 7 9 10 11 9 11 9 9 8 8 10 7 7 7 10 15 5 4 7 6 7 9 3 3 3 4 3 3 3 3 4 6 2 2 4 5 6 5 1 5 2 4 4 4 2 3 2 3 3 3 6 7 4 7 2 2 3 4 11 10 10 10 10 10 11
15 15 17 17 18 20 20 21 21 21 22 22 15 6 5 7 7 8 9 9 4 3 6 7 9 10 9 10 10 11 11 10 9 9 9 9 9 7 7 5 7 5 5 5 7 4 1 4 6 3 3 3 3 3 2 3 6 11 8 6 8 9 3 1 3 4 2 4 3 4 3 4 7 6 6 7 7 3 5 7 10 9 9 9 9 9 8
15 15 16 17 18 19 19 20 21 20 21 21 21 8 3 4 4 6 9 6 5 3 3 4 4 8 8 8 7 9 10 10 10 9 9 7 6 8 6 8 8 7 5 6 4 5 5 5 5 4 2 5 7 5 6 1 0 5 8 7 1 9 7 5 5 7 4 4 5 6 6 8 10 10 10 11 13 10 7 9 9 9 8 8 8 8 8
15 15 16 17 17 18 19 19 20 20 20 21 16 7 7 5 6 8 10 2 3 3 5 3 3 6 6 8 8 7 7 7 8 8 9 9 4 7 8 7 7 6 5 6 6 7 7 6 4 5 3 6 5 7 3 2 2 5 3 6 6 5 8 8 8 10 13 11 10 8 7 7 8 8 8 10 10 12 10 11 10 9 9 6 6 5 6
15 15 15 16 17 18 18 18 19 19 20 20 13 7 6 5 7 8 8 2 2 2 4 6 3 4 6 8 8 7 6 6 7 7 6 8 6 4 6 7 7 6 6 7 5 7 5 4 3 3 3 5 6 2 5 3 5 4 2 4 3 5 4 5 4 8 3 5 6 8 8 7 8 8 8 8 9 9 7 8 9 8 7 8 7 7 7
15 15 15 15 17 17 17 18 18 19 20 19 16 10 7 4 6 7 8 2 2 3 1 3 4 4 3 4 5 5 6 6 4 6 6 6 8 7 6 6 4 5 7 7 6 6 2 3 3 2 3 5 6 3 4 2 5 6 1 7 3 5 4 5 5 3 2 8 8 8 8 8 8 7 7 8 8 9 8 7 8 7 6 6 6 5 5
14 15 14 15 15 16 17 16 17 17 18 19 16 8 6 6 6 7 6 5 6 4 2 4 5 1 3 6 5 4 6 7 7 8 8 7 6 4 6 5 2 4 6 4 5 4 4 3 4 2 5 4 8 3 3 1 2 6 5 4 4 4 6 3 5 8 9 10 9 8 8 9 9 9 8 8 8 8 8 8 8 8 7 5 3 4 5
14 14 15 15 15 15 16 16 16 15 17 16 10 8 6 4 5 6 7 7 7 3 1 4 3 4 3 6 3 4 8 7 6 6 7 8 9 7 6 6 7 5 6 5 1 3 3 1 5 5 5 5 6 3 6 3 3 3 6 7 6 2 7 6 7 6 4 5 8 8 4 6 7 8 8 8 7 6 6 5 5 6 6 5 4 6 6
14 14 15 14 15 15 16 16 15 16 15 16 10 8 4 3 4 5 5 6 6 3 5 0 4 5 3 5 6 5 7 7 7 7 5 6 7 6 5 7 6 6 5 6 3 2 6 7 5 4 2 4 4 2 2 2 3 4 7 6 6 5 8 7 2 2 6 8 6 5 7 8 7 8 5 5 4 4 4 5 5 5 3 2 3 5 5
14 14 13 14 14 15 15 16 15 15 16 13 8 7 5 1 4 6 6 5 4 6 5 1 3 5 1 6 6 6 5 6 6 6 6 5 7 6 5 3 5 6 5 4 3 2 4 5 3 4 4 5 5 3 0 3 4 7 6 10 8 3 6 10 10 9 9 7 6 5 5 7 7 6 5 4 3 2 2 4 4 0 3 3 3 3 5
13 14 14 14 15 15 16 15 15 14 14 8 7 6 4 6 5 6 8 5 5 5 4 4 1 3 3 5 4 4 5 5 3 4 5 3 1 4 6 8 6 5 7 1 3 3 2 2 1 3 3 3 4 4 3 2 4 6 8 5 4 5 6 4 6 7 7 6 5 7 9 8 5 5 5 5 2 6 8 7 6 8 9 6 5 6 4
14 14 15 15 15 15 15 15 14 15 12 6 6 4 4 1 5 7 10 7 5 5 3 5 1 1 3 3 2 6 5 4 1 2 4 6 5 5 2 6 6 7 4 4 2 3 3 4 4 4 2 6 4 3 5 3 3 7 6 6 8 9 7 8 6 8 7 5 5 6 5 4 1 3 4 4 4 1 1 3 7 6 6 3 3 3 2
15 15 15 15 15 15 14 14 14 12 8 6 5 4 3 3 5 7 9 7 7 5 4 4 1 1 3 2 1 2 3 6 4 5 2 6 5 4 4 6 3 5 4 4 1 1 4 1 1 4 6 2 2 4 6 4 6 7 4 4 6 5 4 4 5 4 5 5 5 3 4 3 3 5 5 1 2 2 3 5 2 7 6 5 4 2 3
15 15 16 15 14 14 13 13 12 8 4 6 4 4 5 2 4 6 6 7 4 5 3 3 2 0 0 4 2 1 4 5 2 5 5 5 5 4 0 2 5 3 4 2 3 3 1 0 2 1 4 2 3 3 5 3 9 5 3 6 4 4 6 4 5 4 4 4 2 1 4 5 5 6 4 3 1 4 5 1 5 2 2 6 5 1 2
15 16 15 14 13 12 12 12 10 9 9 4 3 3 2 6 3 4 6 4 4 4 3 2 1 2 3 3 3 4 5 5 2 3 2 5 4 5 4 4 1 2 4 5 1 2 1 3 3 2 1 2 1 2 1 3 3 7 6 5 5 6 4 2 3 4 4 4 4 6 6 4 2 1 1 2 2 3 2 7 7 5 4 3 3 3 2
16 16 15 13 11 10 11 8 5 5 4 8 3 4 3 5 4 6 5 4 2 2 1 1 2 2 1 1 1 4 5 5 3 4 4 4 1 5 3 2 0 1 3 2 2 2 2 5 4 3 3 1 0 1 1 2 5 1 2 7 6 4 4 3 3 3 3 4 2 4 2 1 1 1 1 2 1 1 1 2 3 6 4 3 3 3 3
16 15 13 9 9 8 5 4 4 5 3 3 4 4 4 7 6 5 4 4 3 4 2 1 2 2 2 2 3 2 4 2 4 2 2 1 1 2 5 3 1 3 4 2 2 2 3 5 3 2 3 2 1 1 4 5 5 2 1 1 5 5 4 3 1 4 3 3 5 5 4 3 3 3 3 3 2 1 2 2 2 2 3 3 5 4 1
16 15 10 6 4 4 5 4 4 2 3 3 6 9 9 6 4 4 5 5 4 4 4 3 3 4 4 2 2 3 4 2 2 2 2 4 4 1 3 3 2 2 2 2 2 2 4 0 2 2 1 2 3 3 4 3 3 3 1 1 1 2 4 5 4 4 5 3 2 2 3 2 2 2 2 3 1 1 1 2 3 2 3 4 4 5 1
12 10 4 4 4 3 1 2 3 2 3 5 7 4 3 3 2 3 2 2 3 2 2 5 1 2 1 2 3 4 5 2 4 3 2 3 3 0 1 2 3 2 3 2 4 4 2 0 2 2 2 1 3 4 4 3 2 1 2 2 1 2 3 3 7 5 5 4 5 3 5 3 2 6 6 6 2 0 1 1 3 2 2 4 5 2 3
8 4 5 5 4 2 2 4 2 1 4 1 2 2 1 1 2 1 0 1 0 2 1 4 2 2 3 1 4 5 5 3 4 3 1 3 2 1 2 4 2 2 3 2 2 3 3 1 1 2 2 4 4 8 4 1 2 2 4 4 2 3 2 4 6 6 5 4 1 5 5 5 6 6 6 6 5 1 2 2 3 3 4 6 3 1 2
4 4 3 3 2 5 4 3 5 2 2 2 2 2 0 1 1 2 0 2 2 1 0 0 4 4 4 6 4 3 4 4 3 4 4 2 3 3 2 2 1 2 3 3 2 2 2 3 1 2 1 3 4 2 3 4 4 5 3 3 4 3 3 2 4 4 4 2 2 4 4 4 4 4 5 5 6 3 4 3 2 3 5 2 8 3 3
3 4 1 3 4 2 4 4 3 4 3 1 0 0 1 1 1 1 1 2 1 2 2 2 2 2 2 1 1 1 4 3 2 4 2 1 2 3 3 3 2 3 2 2 2 2 2 2 2 2 4 1 3 3 3 5 5 3 2 2 4 5 4 4 5 4 4 3 2 1 1 3 5 6 7 3 3 4 1 3 4 6 6 1 2 2 1
4 4 4 6 4 3 3 3 3 1 1 1 0 1 1 1 0 2 2 2 2 1 4 2 2 1 5 3 3 4 3 3 2 2 2 1 2 2 2 2 1 1 2 2 2 2 1 2 2 2 2 3 1 3 4 5 4 4 5 3 3 3 4 3 3 4 4 2 1 0 1 1 4 5 6 2 0 1 2 3 5 6 2 1 2 4 1
13 9 6 4 3 2 2 1 1 0 1 0 0 0 1 1 2 3 2 1 0 1 3 2 2 1 3 4 2 1 2 4 3 0 2 1 1 1 2 2 2 2 2 3 3 2 2 2 3 1 3 0 2 2 3 3 5 5 4 2 2 3 4 3 5 6 2 0 1 1 4 4 5 3 5 2 2 2 3 4 5 4 4 5 2 2 1
4 4 4 1 1 1 1 1 0 0 1 2 2 3 2 3 3 2 2 2 2 1 3 2 2 2 1 1 3 1 2 3 0 2 1 1 1 1 1 2 2 2 3 4 2 4 2 2 2 4 4 4 2 3 3 3 5 7 8 4 1 3 4 4 5 5 4 2 1 0 3 2 4 5 2 2 1 2 4 5 4 3 3 4 3 2 3
3 1 1 0 0 1 1 1 1 1 3 2 3 2 3 2 2 2 2 3 2 4 2 3 3 3 1 4 2 1 2 1 3 1 0 1 3 2 2 2 2 2 3 4 3 4 2 2 3 3 5 3 3 2 3 3 4 4 3 5 5 4 5 6 6 4 3 4 4 2 3 2 3 5 3 1 1 3 4 5 5 8 5 3 5 4 4
3 2 3 2 1 3 2 1 2 3 2 2 3 2 1 3 3 4 3 3 1 3 1 1 3 2 3 1 1 0 2 1 3 1 1 1 2 3 2 3 2 4 3 3 3 4 3 2 1 1 2 3 7 5 1 4 5 4 5 6 6 6 5 6 6 6 5 5 4 4 4 3 4 5 4 2 3 4 5 6 6 5 3 3 4 3 4
1 1 1 2 2 2 2 3 4 2 2 4 0 4 2 4 4 6 4 2 1 2 2 2 3 3 3 1 2 2 1 0 2 1 1 2 2 1 0 2 2 2 3 3 3 3 3 3 2 0 1 2 1 3 3 6 7 5 5 5 6 7 7 6 6 7 5 5 6 4 4 4 3 3 6 5 3 4 5 6 7 3 2 5 4 3 3
1 2 2 2 3 2 5 4 5 0 1 2 3 2 3 2 2 2 2 1 3 1 2 2 2 1 3 2 1 2 2 2 2 2 1 2 0 2 2 2 3 3 2 3 4 2 2 1 2 3 1 2 5 3 3 5 6 6 5 5 5 6 6 5 5 6 5 6 6 6 6 4 3 3 3 4 4 4 6 7 7 5 4 5 5 4 4
1 2 1 2 2 2 3 2 2 2 2 2 1 1 2 2 2 3 3 3 1 1 2 3 2 2 3 1 2 1 3 1 1 1 1 1 1 2 2 3 3 4 2 2 3 3 2 2 1 3 3 5 1 0 4 5 5 5 6 6 6 8 7 5 5 6 5 6 5 6 6 5 4 3 4 3 3 5 6 6 7 6 6 6 6 5 5
2 3 2 3 3 3 4 2 2 2 3 1 1 3 1 2 3 6 2 2 1 1 1 3 0 2 2 2 2 1 2 1 2 0 2 3 3 3 3 6 4 4 3 2 3 3 3 3 3 3 4 4 4 4 5 6 5 6 6 6 4 4 9 9 5 5 5 5 6 6 6 5 6 5 4 5 4 4 5 6 8 8 7 6 6 6 5
1 2 3 3 4 3 2 3 2 2 3 5 3 1 1 1 2 3 2 2 2 1 2 3 1 2 2 2 1 2 1 2 2 4 3 4 2 3 4 5 4 4 4 3 3 3 4 4 3 3 4 5 4 3 5 6 6 6 6 6 7 6 4 6 5 6 6 5 5 6 7 8 6 6 6 5 5 5 6 6 7 8 7 7 7 6 6
2 3 3 3 4 3 3 2 3 2 3 6 2 2 2 2 1 4 3 4 3 2 2 0 2 2 2 3 2 1 2 2 3 2 4 2 1 4 3 3 4 4 4 4 4 4 4 3 3 2 6 7 6 3 5 6 6 6 5 4 4 5 5 5 6 4 5 6 5 5 6 6 6 7 5 4 5 6 5 6 7 8 8 7 6 7 6
Wind_Direction
343 343 342 342 340 339 337 338 338 341 344 349 349 320 294 248 274 70 162 163 200 239 256 251 257 254 268 277 259 254 246 248 256 277 278 277 282 277 264 262 263 263 295 293 271 280 287 179 184 213 195 176 240 275 293 328 9 323 277 255 39 79 252 161 225 255 296 300 305 312 310 311 311 266 262 236 246 254 236 242 78 229 1 346 6 274 92
344 345 344 343 341 338 338 338 338 340 352 340 314 303 299 325 345 152 136 168 221 254 278 323 321 295 280 263 276 289 307 312 283 276 268 256 256 256 260 252 237 264 241 234 259 271 281 304 279 158 298 281 126 209 236 312 331 355 296 309 333 252 171 261 223 206 215 339 317 270 323 354 349 340 327 298 270 142 265 108 157 281 252 247 120 236 105
346 347 345 344 342 339 338 337 336 337 341 339 313 305 317 301 283 259 118 199 222 300 341 279 280 301 312 295 287 282 277 279 280 279 284 274 268 269 254 257 250 234 237 255 260 254 269 273 219 126 224 166 202 185 223 165 228 337 300 300 195 240 122 188 236 236 225 217 240 226 192 346 339 337 326 332 294 247 161 192 95 254 331 291 230 158 164
347 348 346 345 343 341 338 336 335 335 340 340 310 291 294 304 338 9 48 40 339 288 294 21 307 335 350 301 289 271 271 260 284 299 281 265 276 285 294 312 313 305 308 282 261 257 241 255 259 163 153 101 243 201 178 185 168 232 285 307 19 277 178 197 214 241 257 203 146 278 121 347 355 353 4 352 353 311 258 163 145 195 42 324 360 202 163
348 347 347 346 344 342 339 337 337 335 335 347 304 281 241 281 349 5 337 357 182 314 321 346 330 49 293 295 328 307 296 271 238 242 282 254 276 272 274 276 265 278 275 263 275 272 271 252 238 231 152 136 268 186 221 188 173 153 193 228 294 270 257 227 227 253 255 289 218 112 320 23 24 11 2 356 360 357 303 265 301 130 151 181 327 79 97
350 347 347 348 346 343 341 339 339 338 330 338 299 286 287 325 65 355 37 312 354 346 1 343 326 3 3 5 350 326 315 283 246 34 278 266 238 285 292 274 259 256 254 261 261 267 270 272 286 298 35 132 143 236 229 125 131 183 210 195 214 216 230 215 231 239 254 171 101 205 208 235 52 31 17 10 5 23 14 2 355 310 268 169 121 118 117
350 347 347 348 347 345 344 341 342 339 331 326 244 302 21 11 15 26 342 329 34 38 16 340 319 36 359 63 15 2 300 303 304 342 14 334 12 309 319 300 284 280 274 273 241 10 285 315 334 19 37 38 354 293 29 314 222 208 240 204 175 220 244 298 210 226 190 163 160 91 204 219 209 142 11 9 5 31 30 25 18 42 90 104 114 99 102
350 348 347 346 347 348 347 344 344 341 336 322 307 38 345 31 338 9 352 90 79 2 4 21 343 32 4 2 17 351 331 24 11 58 40 74 339 340 304 289 297 344 10 35 37 9 14 2 31 330 352 81 39 24 160 308 310 245 196 236 56 251 105 67 299 240 184 181 147 153 206 178 218 181 134 94 14 31 37 47 47 4 57 97 110 106 105
350 349 348 348 348 348 347 347 348 344 343 347 12 53 11 342 40 329 335 11 37 64 22 43 16 25 24 15 355 351 1 4 340 26 17 50 23 10 341 353 309 28 11 24 19 0 356 346 4 345 344 355 184 248 318 241 71 310 337 37 1 327 158 232 196 242 217 203 194 181 127 212 251 195 172 155 88 82 39 59 25 35 63 49 90 109 102
350 349 349 350 350 349 348 349 349 352 337 357 0 29 3 344 4 326 302 342 62 17 47 42 30 40 38 2 339 345 343 358 346 317 351 20 20 6 8 6 305 41 17 0 355 342 324 321 325 336 314 312 286 240 224 230 202 172 44 8 66 276 162 198 166 242 241 214 208 184 171 189 243 232 206 142 127 116 103 59 41 21 5 161 104 89 106
351 351 351 351 351 349 348 349 351 356 357 10 345 0 9 0 342 314 296 278 56 51 12 43 57 86 115 59 5 355 341 4 22 358 13 0 8 359 11 22 11 23 14 347 324 309 305 293 291 277 274 282 267 269 264 263 269 138 132 97 282 316 308 291 7 276 246 137 171 140 194 231 197 12 359 139 142 135 97 67 64 48 38 54 69 97 111
351 351 351 351 351 350 349 349 350 355 1 338 313 320 14 340 321 306 306 38 58 44 40 29 35 158 178 71 17 5 6 19 14 356 4 351 348 356 357 19 13 5 360 317 311 305 284 259 251 250 255 246 260 254 245 259 306 100 157 131 192 184 229 186 115 69 353 352 91 134 228 223 50 352 50 76 103 103 103 102 78 77 75 73 64 69 74
350 350 350 351 351 350 349 348 348 350 355 345 328 350 15 349 322 328 338 6 37 3 356 59 16 26 57 154 170 66 360 349 12 350 351 341 348 354 354 349 356 354 331 329 321 299 291 285 249 263 243 224 216 229 238 187 258 322 333 158 168 149 201 165 137 125 113 234 166 241 76 102 106 65 68 76 101 102 96 82 93 104 100 90 85 85 86
350 349 349 350 351 350 349 349 347 348 349 351 328 329 19 4 359 347 353 347 53 23 1 43 7 22 32 8 356 160 199 255 345 13 2 348 345 350 343 335 338 329 327 328 306 304 300 262 278 247 228 242 233 243 222 230 193 256 210 206 186 155 104 153 237 125 232 215 210 257 133 132 88 120 67 47 60 175 174 137 114 120 111 111 115 108 100
350 349 350 350 350 349 349 349 348 348 348 347 313 323 28 11 358 342 315 306 93 59 27 24 359 320 338 32 354 32 200 197 222 226 315 268 348 337 336 335 329 327 319 310 314 296 269 297 282 285 261 336 292 295 355 315 298 206 293 336 289 144 155 77 222 55 22 85 339 173 193 213 68 14 23 16 13 352 91 115 136 127 122 129 124 118 118
350 349 350 351 349 349 349 350 350 349 352 350 337 0 48 12 346 341 324 6 11 57 26 10 347 313 9 35 12 7 352 7 340 223 207 226 81 344 4 350 342 316 312 317 311 305 318 326 283 271 281 276 95 299 307 18 348 257 228 282 230 182 127 119 222 65 28 239 259 276 310 75 339 16 348 358 354 349 350 146 110 137 141 138 136 138 141
350 350 350 350 349 349 350 349 349 350 350 358 338 332 39 6 356 345 323 50 60 60 18 14 353 359 14 24 14 20 355 1 324 8 329 12 62 1 16 348 210 251 318 307 314 310 253 224 269 293 305 325 87 280 245 122 213 308 282 229 241 209 231 204 220 202 204 137 256 265 65 57 34 42 325 338 357 322 294 145 112 124 142 147 149 151 155
350 351 351 350 350 349 351 349 349 349 352 350 347 310 26 4 358 336 310 61 63 56 44 19 25 22 28 9 8 11 1 359 336 327 347 348 27 5 346 357 343 78 276 260 277 284 298 297 282 315 317 44 331 297 316 338 356 285 342 13 355 20 332 292 263 272 114 105 117 111 110 40 342 352 338 9 336 334 205 113 118 292 118 125 115 90 74
354 353 351 351 350 351 350 350 349 349 351 355 345 318 48 0 357 349 348 72 45 70 34 36 39 45 19 25 25 9 28 4 347 353 10 345 10 334 313 354 347 350 358 345 318 302 298 299 263 277 277 153 194 344 162 200 199 275 327 331 330 0 342 272 250 285 306 56 91 84 91 336 302 302 352 334 296 170 86 215 13 56 61 112 86 77 74
357 353 353 352 352 352 351 350 349 347 348 351 353 327 19 13 2 359 359 18 77 64 44 42 31 49 41 34 25 27 15 25 8 5 5 358 352 324 284 175 31 345 11 350 344 67 338 343 345 12 317 341 67 335 345 203 333 31 0 1 314 20 352 1 29 356 326 268 136 108 81 40 347 314 53 0 53 89 176 125 67 73 70 69 81 86 95
356 355 353 354 353 353 352 351 350 347 346 345 350 321 15 22 353 356 354 347 50 68 63 41 58 49 42 45 33 27 29 27 16 1 353 350 339 334 40 19 0 2 15 352 340 354 318 329 21 354 35 286 63 245 331 42 93 62 4 22 59 2 308 39 65 6 335 38 64 63 68 29 23 55 75 62 55 101 72 88 86 76 75 76 69 68 75
355 354 354 355 353 353 352 351 349 347 346 346 341 313 64 32 358 351 337 334 55 77 59 61 58 74 57 46 50 45 35 21 27 6 353 343 346 27 24 20 32 6 28 334 3 337 32 4 324 319 350 16 3 341 19 311 246 67 56 347 73 20 56 28 59 29 25 66 101 108 74 59 45 47 60 56 46 42 89 94 94 93 83 71 75 69 73
352 353 354 354 353 353 351 349 349 346 346 348 353 344 5 358 4 334 320 295 140 149 214 151 117 61 68 66 51 37 59 36 19 24 10 346 354 54 27 10 14 345 34 9 3 349 3 355 11 328 355 17 353 324 311 273 14 51 47 51 78 81 81 94 88 79 83 87 96 103 96 85 72 63 55 62 63 57 57 75 75 74 86 88 88 87 88
351 352 353 353 351 351 350 348 348 345 345 345 345 324 337 344 353 343 319 356 351 115 90 32 359 49 18 25 39 36 13 52 33 35 32 4 5 36 52 31 347 346 26 5 348 336 345 305 344 326 338 47 321 350 356 56 58 13 12 104 62 45 40 61 86 148 163 96 124 105 101 104 89 77 66 63 65 66 70 85 78 83 83 78 69 77 59
351 349 350 351 349 349 348 347 346 344 341 343 340 313 288 350 10 342 336 345 318 293 59 85 63 357 326 44 28 34 21 13 16 42 25 51 31 14 18 3 345 351 347 339 325 311 272 307 345 347 50 44 332 34 40 354 76 349 339 53 7 86 328 120 107 108 92 115 118 118 118 119 117 105 94 84 80 76 64 69 76 83 95 104 120 122 100
350 348 347 348 347 345 344 343 342 341 340 337 335 322 349 11 358 341 334 327 314 301 293 72 80 110 356 28 24 34 8 29 7 44 24 26 62 21 359 337 231 226 272 280 339 320 350 1 335 33 19 43 331 329 74 217 42 78 30 62 24 309 278 64 88 99 102 116 120 123 125 113 109 111 105 104 112 116 124 126 129 121 106 112 72 56 109
348 347 344 344 343 342 341 339 339 338 335 335 330 315 334 14 21 7 5 350 326 227 164 104 98 123 107 62 2 36 26 28 17 15 35 31 29 23 13 5 357 18 5 338 307 305 277 142 36 25 5 25 324 3 344 350 360 60 81 42 332 25 36 103 112 114 122 126 135 146 153 130 111 105 102 100 99 98 106 123 108 76 63 61 114 154 142
345 343 340 339 338 338 336 335 335 333 332 327 309 296 300 356 48 27 18 359 353 349 322 340 117 58 280 64 347 45 31 43 13 16 355 30 22 12 25 14 3 10 8 347 13 25 27 34 37 4 19 26 338 118 79 358 245 85 55 52 47 39 40 9 31 61 103 113 112 72 76 101 91 96 108 117 101 102 88 82 105 116 114 53 34 13 36
339 337 334 333 333 332 333 330 330 327 328 321 302 298 257 305 47 50 27 348 323 318 306 350 187 166 117 49 346 22 63 47 44 12 10 29 23 351 35 15 41 358 0 349 338 38 31 47 18 13 0 2 314 330 291 223 107 73 61 41 41 354 60 89 77 85 100 103 79 75 104 111 116 116 110 104 93 70 105 137 99 30 61 73 71 48 16
335 333 329 329 328 328 327 326 324 320 327 314 299 285 244 127 26 36 11 347 336 327 313 315 52 71 101 39 8 335 8 52 45 57 23 4 77 29 356 329 61 15 304 39 2 19 8 83 79 54 15 24 328 329 306 293 103 90 63 82 120 52 32 38 71 98 94 82 79 98 117 129 139 129 92 86 57 32 46 60 60 57 52 33 3 355 6
332 329 326 326 325 322 321 321 318 317 317 292 282 281 292 187 73 18 355 336 332 314 320 290 39 113 90 129 98 339 338 41 19 25 358 336 349 44 41 357 41 4 7 7 42 60 342 28 340 99 113 39 349 317 316 305 98 101 93 51 44 56 48 62 68 97 107 102 108 101 92 81 73 177 126 74 79 115 248 132 117 88 86 8 308 278 29
329 324 322 321 319 317 314 314 310 316 299 307 337 352 17 354 331 327 319 313 315 284 284 284 157 196 121 128 101 285 327 8 302 223 129 348 34 5 349 340 88 57 29 352 304 131 33 345 25 350 25 41 289 313 331 335 85 93 87 91 91 86 95 95 83 88 107 106 98 111 102 88 39 48 60 127 54 53 253 300 130 142 174 210 187 142 139
325 320 318 317 315 310 307 302 305 324 314 332 355 65 78 9 281 277 324 325 281 265 275 285 27 9 83 59 158 78 319 268 283 347 57 4 33 314 56 24 48 92 142 219 349 47 94 293 247 223 79 322 331 335 330 41 96 122 114 100 102 86 79 78 89 94 99 78 21 71 100 72 58 31 36 28 21 344 359 260 290 296 23 9 330 278 175
323 320 315 312 309 309 298 297 298 294 265 250 227 165 77 7 330 19 332 289 289 295 271 283 211 210 111 181 218 82 325 348 61 306 100 79 355 299 26 312 137 294 54 346 5 258 216 313 29 27 221 97 344 308 326 84 119 123 139 130 122 121 110 118 113 110 80 70 71 54 54 50 32 103 111 333 290 147 109 27 27 12 350 312 306 325 7
316 315 311 307 304 304 299 295 280 233 251 250 104 68 7 356 338 301 307 321 293 204 214 254 281 292 129 172 96 79 315 296 16 16 357 41 344 354 323 311 7 302 98 276 287 323 62 47 355 298 92 85 289 40 312 85 120 18 122 140 134 126 144 187 164 118 106 84 82 113 190 92 272 225 339 311 358 348 23 63 17 7 321 286 283 296 276
314 310 312 309 294 275 258 219 242 255 242 34 38 39 9 294 281 262 255 262 273 322 282 144 233 265 357 13 67 80 309 299 37 9 55 304 112 51 337 353 309 76 319 315 291 86 46 28 326 302 134 237 111 356 69 14 54 110 61 300 146 170 177 214 143 126 127 111 54 32 352 320 299 347 330 307 287 49 53 351 333 272 273 302 290 284 333
308 310 297 278 248 198 227 208 143 16 22 340 311 304 287 288 250 248 236 227 205 201 292 334 313 48 7 62 126 70 318 19 346 292 16 19 3 330 339 311 16 30 291 227 274 36 72 305 300 290 280 312 54 32 30 26 358 1 79 280 167 200 179 194 164 148 184 148 165 260 309 313 310 245 255 281 338 128 160 227 248 246 240 262 275 260 11
304 294 265 215 214 223 171 68 40 23 326 285 272 274 189 215 224 185 191 225 144 216 246 268 321 60 200 331 53 28 298 357 18 338 21 37 302 339 357 311 56 333 320 5 61 11 338 289 263 299 305 272 92 80 40 41 3 310 275 289 299 205 220 143 120 175 218 201 237 212 244 241 332 1 342 333 321 151 173 249 264 239 294 258 251 303 332
289 251 228 240 236 356 41 76 102 257 277 282 262 276 184 233 206 120 185 117 164 208 107 294 57 3 22 351 101 66 20 342 308 289 346 96 312 17 47 320 75 320 326 297 98 337 283 253 241 254 295 86 67 55 36 238 294 290 315 315 301 294 248 164 148 202 204 230 324 65 19 0 351 342 324 303 317 75 102 168 245 250 238 243 258 305 26
194 219 233 248 59 83 100 125 201 217 235 232 194 270 195 238 236 167 224 234 196 125 266 8 29 26 10 351 12 95 13 315 329 14 353 359 62 334 22 301 34 323 323 312 72 301 296 308 320 270 63 94 99 103 291 346 340 330 352 304 291 261 257 183 174 210 245 216 46 30 24 347 350 319 316 327 319 297 146 146 244 256 239 98 65 13 299
251 275 294 39 65 103 104 153 153 249 229 243 144 269 296 240 292 69 195 240 202 106 334 5 169 154 199 312 265 8 96 313 352 0 288 327 52 280 301 306 19 306 306 303 76 298 300 305 304 355 90 305 350 26 314 319 355 0 332 301 280 271 247 209 195 198 209 224 162 195 84 352 333 323 307 333 347 313 232 183 211 228 231 150 239 200 187
356 311 338 295 314 59 144 176 226 188 339 315 202 243 189 218 198 206 263 273 156 146 156 233 181 88 90 324 359 339 94 41 324 295 314 338 83 309 327 309 331 309 304 26 347 275 296 280 294 83 104 343 13 292 324 6 18 349 333 327 310 293 261 214 201 203 228 258 222 294 0 14 333 299 297 341 232 238 250 201 213 223 207 176 235 279 270
293 262 252 261 199 196 225 204 174 273 186 94 256 341 235 217 208 229 170 142 49 287 92 302 35 76 101 318 292 239 17 19 323 318 270 335 64 268 320 323 325 276 305 329 299 313 296 306 304 62 118 172 59 4 40 10 344 340 332 9 327 281 284 237 195 222 188 232 57 325 309 332 309 332 346 322 174 226 224 212 209 207 197 212 222 271 106
266 242 223 231 203 229 231 244 180 325 312 230 179 177 194 226 204 193 221 139 175 162 62 247 206 273 118 70 304 292 162 150 227 297 281 85 272 315 298 280 262 320 333 276 297 288 303 285 357 7 107 109 41 46 32 353 355 344 334 324 243 263 259 250 238 230 189 152 271 218 279 257 299 293 140 304 327 237 231 215 190 200 295 349 315 243 153
211 180 240 156 239 202 106 349 230 197 225 196 239 218 146 216 180 192 91 94 247 104 210 275 320 321 256 145 236 72 348 313 130 243 337 357 306 316 284 295 332 308 296 302 304 294 296 286 67 21 25 36 63 56 40 7 299 292 284 292 284 259 267 258 242 245 241 233 247 286 281 324 294 290 304 204 220 235 229 237 193 170 194 230 237 238 174
187 192 168 153 10 278 224 206 177 224 216 191 228 289 145 54 38 102 116 220 48 76 3 68 284 308 293 67 287 1 166 284 298 283 335 269 289 288 326 312 291 287 299 291 283 279 303 0 20 87 111 56 61 37 9 305 302 314 323 328 335 312 274 270 272 248 219 228 233 233 265 290 314 314 297 223 224 222 217 237 235 215 186 209 221 232 199
242 325 270 273 273 197 220 226 206 222 166 217 168 45 46 78 48 47 32 353 34 64 302 52 303 322 306 290 267 232 203 19 283 311 297 272 262 301 276 306 304 287 279 284 279 288 309 6 357 318 5 355 23 71 10 330 317 332 344 332 312 307 309 293 270 262 249 247 254 255 250 241 234 270 309 294 211 224 252 239 240 214 229 250 236 220 227
247 215 243 237 226 198 207 223 249 185 28 4 68 57 76 97 135 118 128 290 16 329 328 342 282 253 234 97 16 287 301 201 247 249 244 301 229 252 307 279 268 271 266 279 289 321 326 9 342 345 340 326 87 87 320 295 306 322 320 307 290 284 286 283 273 265 261 256 255 253 249 244 234 251 238 263 275 228 230 240 238 216 212 232 245 223 228
325 313 241 228 244 214 231 216 214 216 163 99 76 204 156 224 192 115 85 60 6 327 22 304 334 345 290 147 244 239 247 122 251 238 162 217 256 258 235 266 289 296 302 300 332 14 351 3 3 319 325 310 319 232 280 288 301 295 290 292 320 325 298 293 302 289 258 244 236 244 254 260 260 249 264 257 240 234 223 234 249 234 215 227 234 222 218
246 215 245 265 248 252 271 26 299 254 147 167 180 250 173 257 88 79 68 260 351 296 277 239 151 303 321 4 291 315 282 239 253 253 245 254 244 244 242 262 265 281 306 348 327 343 351 342 343 317 303 310 297 289 301 298 288 279 280 299 301 301 288 273 265 270 259 248 236 239 248 233 237 235 231 251 242 220 213 217 226 230 216 219 223 225 232
241 272 257 252 267 333 333 218 216 236 183 179 205 246 48 318 74 91 30 347 78 268 256 273 174 217 289 274 270 258 244 10 286 247 244 254 249 251 247 253 261 274 292 327 326 337 334 335 324 313 314 283 269 286 281 280 285 283 286 276 278 276 281 285 263 266 272 268 251 220 238 253 249 251 246 231 238 234 214 217 228 235 226 211 218 229 220
208 222 239 240 235 207 247 12 36 326 30 62 15 99 73 270 41 97 98 279 251 253 259 265 276 268 233 250 249 283 309 268 263 308 290 283 303 280 280 296 321 322 327 318 322 336 325 311 312 295 277 282 301 283 261 267 279 291 292 283 276 290 291 313 315 289 268 268 264 272 267 253 250 248 245 248 260 261 232 203 214 232 233 229 220 216 232